Retour au catalogue

THOR BURNER 2 R/B

ActifSSO
NORAD 3522·ROCKET BODY·🇺🇸 United States

Lancé Oct 23, 1968 depuis Vandenberg Space Force Base

Loading…

Prochains Passages (prochaines 24 heures)

TLE

FraisSource: Space-Track

Époque: Sep 14, 2026, 21:16 UTC

1 03522U 68092B   26257.88664555  .00000106  00000-0  57731-4 0  9990
2 03522  98.8304  51.0383 0027759 264.9863  94.8151 14.31065206 13116

Suivez THOR BURNER 2 R/B en temps réel avec AllMySat

Download on the App Store